Weather History for KBKD - November, 2013

Change the Weather History Date:

Saturday, November 23, 2013

  Actual Average (KABI) Record (KABI)
Temperature  
Mean Temperature 35 °F 51 °F  
Max Temperature 38 °F 63 °F 85 °F (1965)
Min Temperature 32 °F 40 °F 19 °F (1970)
Degree Days  
Heating Degree Days 30 14  
Month to date heating degree days 222  
Since 1 July heating degree days 326  
Cooling Degree Days 0 0  
Month to date cooling degree days 15  
Year to date cooling degree days 2404  
Moisture  
Dew Point 29 °F    
Average Humidity 81    
Maximum Humidity 100    
Minimum Humidity 48    
Precipitation  
Precipitation 0.07 in 0.03 in 1.10 in (1913)
Month to date precipitation 1.14  
Year to date precipitation 23.32  
Sea Level Pressure  
Sea Level Pressure 30.53 in    
Wind  
Wind Speed 11 mph (NNE)    
Max Wind Speed 16 mph    
Max Gust Speed 25 mph    
Visibility 9 miles    
Events      
T = Trace of Precipitation, MM = Missing Value Source: NWS Daily Summary

Daily Weather History Graph

Daily Weather History Graph

Search for Another Location

Airport or City:

Trip Planner

Search our weather history database for the weather conditions in past years. The results will help you decide how hot, cold, wet, or windy it might be!

Date:

Astronomy

Nov. 23, 2013 Rise Set
Actual Time 7:13 AM CST 5:30 PM CST
Civil Twilight 6:46 AM CST 5:57 PM CST
Nautical Twilight 6:16 AM CST 6:27 PM CST
Astronomical Twilight 5:46 AM CST 6:57 PM CST
Moon 10:53 PM CST (11/23) 11:37 AM CST (11/23)
Length of Visible Light 11h 10m
Length of Day
10h 17m
Waning Gibbous, 69% of the Moon is Illuminated
Nov 23
Waning Gibbous
Nov 25
Last Quarter
Dec 2
New
Dec 9
First Quarter
Dec 17
Full

Hourly Weather History & Observations

Time (CST) Temp. Windchill Dew Point Humidity Pressure Visibility Wind Dir Wind Speed Gust Speed Precip Events Conditions
12:15 AM 32.2 °F 23.8 °F 32.0 °F 99% 30.50 in 4.0 mi North 10.4 mph 16.1 mph N/A   Overcast
12:35 AM 32.2 °F 24.4 °F 32.0 °F 99% 30.49 in 3.0 mi North 9.2 mph 16.1 mph N/A   Overcast
12:55 AM 32.5 °F 23.2 °F 32.2 °F 99% 30.48 in 4.0 mi North 12.7 mph 16.1 mph N/A   Overcast
1:15 AM 32.2 °F 23.2 °F 32.0 °F 99% 30.48 in 3.0 mi North 11.5 mph 18.4 mph N/A   Overcast
1:35 AM 32.0 °F 21.6 °F 32.0 °F 100% 30.48 in 4.0 mi North 15.0 mph 25.3 mph N/A   Overcast
1:55 AM 32.0 °F 22.5 °F 31.5 °F 98% 30.49 in 4.0 mi North 12.7 mph 21.9 mph N/A   Overcast
2:15 AM 32.0 °F 23.0 °F 31.5 °F 98% 30.50 in 4.0 mi North 11.5 mph - N/A   Overcast
2:35 AM 32.0 °F 22.5 °F 32.0 °F 100% 30.50 in 4.0 mi North 12.7 mph 18.4 mph N/A   Overcast
2:55 AM 32.0 °F 21.6 °F 31.1 °F 96% 30.50 in 5.0 mi North 15.0 mph 20.7 mph N/A   Overcast
3:15 AM 32.0 °F 24.2 °F 31.5 °F 98% 30.50 in 5.0 mi North 9.2 mph - N/A   Overcast
3:35 AM 32.0 °F 22.5 °F 31.6 °F 99% 30.50 in 5.0 mi North 12.7 mph - N/A   Overcast
3:55 AM 32.0 °F 24.8 °F 31.5 °F 98% 30.51 in 4.0 mi North 8.1 mph 16.1 mph N/A   Overcast
4:15 AM 32.0 °F 23.6 °F 31.5 °F 98% 30.51 in 5.0 mi North 10.4 mph - N/A   Overcast
4:35 AM 32.0 °F 24.2 °F 31.6 °F 99% 30.50 in 7.0 mi North 9.2 mph 17.3 mph N/A   Overcast
4:55 AM 32.0 °F 22.5 °F 31.6 °F 99% 30.50 in 7.0 mi North 12.7 mph 18.4 mph N/A   Overcast
5:15 AM 32.0 °F 22.5 °F 31.1 °F 96% 30.50 in 10.0 mi NNE 12.7 mph 20.7 mph N/A   Overcast
5:35 AM 32.0 °F 22.5 °F 31.3 °F 97% 30.51 in 10.0 mi NNE 12.7 mph 18.4 mph N/A   Overcast
5:55 AM 32.0 °F 21.2 °F 31.5 °F 98% 30.51 in 10.0 mi North 16.1 mph 24.2 mph N/A   Overcast
6:15 AM 32.0 °F 23.6 °F 31.8 °F 99% 30.52 in 10.0 mi North 10.4 mph - N/A   Overcast
6:35 AM 32.4 °F 25.3 °F 32.0 °F 99% 30.52 in 7.0 mi North 8.1 mph - N/A   Overcast
6:55 AM 32.2 °F 23.8 °F 32.0 °F 99% 30.53 in 7.0 mi North 10.4 mph 17.3 mph N/A   Overcast
7:15 AM 32.0 °F 22.5 °F 31.6 °F 99% 30.54 in 10.0 mi NNE 12.7 mph 18.4 mph N/A   Overcast
7:35 AM 32.4 °F 24.0 °F 32.0 °F 99% 30.55 in 10.0 mi North 10.4 mph 16.1 mph N/A   Overcast
7:55 AM 32.4 °F 24.6 °F 31.8 °F 98% 30.55 in 10.0 mi North 9.2 mph 16.1 mph N/A   Overcast
8:15 AM 32.0 °F 22.1 °F 31.6 °F 99% 30.57 in 10.0 mi North 13.8 mph 19.6 mph N/A   Overcast
8:35 AM 32.0 °F 24.2 °F 31.6 °F 99% 30.57 in 10.0 mi North 9.2 mph - N/A   Overcast
8:55 AM 32.0 °F 22.1 °F 31.3 °F 97% 30.57 in 10.0 mi North 13.8 mph 18.4 mph N/A   Overcast
9:15 AM 32.0 °F 22.5 °F 31.1 °F 96% 30.57 in 10.0 mi North 12.7 mph - N/A   Overcast
9:35 AM 32.0 °F 23.6 °F 31.1 °F 96% 30.57 in 10.0 mi North 10.4 mph 16.1 mph N/A   Overcast
9:55 AM 32.5 °F 23.7 °F 32.0 °F 98% 30.58 in 10.0 mi North 11.5 mph 16.1 mph N/A   Overcast
10:15 AM 32.4 °F 24.0 °F 31.6 °F 97% 30.59 in 10.0 mi North 10.4 mph - N/A   Overcast
10:33 AM 33.8 °F 27.0 °F 30.2 °F 87% 30.58 in 10.0 mi North 8.1 mph - N/A   Overcast
10:35 AM 32.5 °F 24.8 °F 31.5 °F 96% 30.57 in 10.0 mi North 9.2 mph - N/A   Overcast
10:55 AM 32.9 °F 24.7 °F 31.3 °F 94% 30.58 in 10.0 mi North 10.4 mph - N/A   Overcast
11:15 AM 33.1 °F 24.4 °F 31.1 °F 92% 30.57 in 10.0 mi North 11.5 mph - N/A   Overcast
11:35 AM 33.4 °F 26.6 °F 31.5 °F 92% 30.57 in 10.0 mi North 8.1 mph 19.6 mph N/A   Overcast
11:55 AM 33.8 °F 25.8 °F 31.6 °F 92% 30.56 in 10.0 mi North 10.4 mph - N/A   Overcast
12:15 PM 34.0 °F 25.0 °F 31.3 °F 90% 30.55 in 10.0 mi North 12.7 mph 17.3 mph N/A   Overcast
12:35 PM 34.7 °F 26.4 °F 31.8 °F 89% 30.54 in 10.0 mi North 11.5 mph 18.4 mph N/A   Overcast
12:55 PM 35.1 °F 27.4 °F 32.0 °F 89% 30.54 in 10.0 mi North 10.4 mph 16.1 mph N/A   Overcast
1:15 PM 35.6 °F 27.1 °F 32.0 °F 87% 30.53 in 10.0 mi NNE 12.7 mph 20.7 mph 0.01 in   Overcast
1:35 PM 35.6 °F 27.1 °F 30.6 °F 82% 30.52 in 10.0 mi North 12.7 mph 21.9 mph 0.02 in   Overcast
1:55 PM 35.6 °F 27.5 °F 30.9 °F 83% 30.52 in 10.0 mi NNE 11.5 mph - 0.02 in   Overcast
2:15 PM 36.1 °F 26.9 °F 30.4 °F 80% 30.51 in 10.0 mi NNE 15.0 mph 20.7 mph N/A   Overcast
2:35 PM 36.5 °F 28.2 °F 30.7 °F 80% 30.51 in 10.0 mi North 12.7 mph 19.6 mph 0.01 in   Overcast
2:55 PM 36.7 °F 29.4 °F 30.4 °F 78% 30.51 in 10.0 mi NNE 10.4 mph 17.3 mph 0.01 in   Overcast
3:15 PM 37.0 °F 28.5 °F 30.2 °F 76% 30.51 in 10.0 mi NNE 13.8 mph 18.4 mph 0.01 in   Overcast
3:35 PM 37.4 °F 28.9 °F 30.0 °F 75% 30.50 in 10.0 mi NNE 13.8 mph - 0.01 in   Overcast
3:55 PM 37.6 °F 29.6 °F 30.0 °F 74% 30.51 in 10.0 mi NNE 12.7 mph 17.3 mph 0.01 in   Overcast
4:15 PM 37.9 °F 32.7 °F 28.2 °F 68% 30.51 in 10.0 mi NNE 6.9 mph 19.6 mph N/A   Overcast
4:35 PM 37.9 °F 30.0 °F 27.3 °F 66% 30.51 in 10.0 mi NNE 12.7 mph 17.3 mph 0.01 in   Overcast
4:55 PM 38.3 °F 30.5 °F 27.5 °F 65% 30.52 in 10.0 mi NNE 12.7 mph 18.4 mph 0.01 in   Overcast
5:15 PM 37.8 °F 31.8 °F 26.2 °F 63% 30.52 in 10.0 mi North 8.1 mph - N/A   Overcast
5:35 PM 37.4 °F 29.8 °F 25.9 °F 63% 30.52 in 10.0 mi North 11.5 mph 16.1 mph N/A   Mostly Cloudy
5:55 PM 37.0 °F 29.3 °F 25.3 °F 63% 30.52 in 10.0 mi NNE 11.5 mph 19.6 mph 0.01 in   Scattered Clouds
6:15 PM 37.4 °F 30.8 °F 25.5 °F 62% 30.52 in 10.0 mi NNE 9.2 mph 16.1 mph N/A   Mostly Cloudy
6:35 PM 37.4 °F 29.3 °F 24.8 °F 60% 30.52 in 10.0 mi NNE 12.7 mph 18.4 mph N/A   Overcast
6:55 PM 37.4 °F 28.9 °F 24.1 °F 59% 30.52 in 10.0 mi NNE 13.8 mph 20.7 mph N/A   Overcast
7:15 PM 37.0 °F 27.7 °F 23.9 °F 59% 30.52 in 10.0 mi NNE 16.1 mph 20.7 mph N/A   Overcast
7:35 PM 37.0 °F 29.3 °F 23.7 °F 59% 30.53 in 10.0 mi NNE 11.5 mph 21.9 mph N/A   Overcast
7:55 PM 37.4 °F 28.2 °F 23.4 °F 57% 30.52 in 10.0 mi NE 16.1 mph 19.6 mph N/A   Overcast
8:15 PM 37.4 °F 29.3 °F 23.0 °F 56% 30.52 in 10.0 mi NNE 12.7 mph 18.4 mph N/A   Overcast
8:35 PM 37.6 °F 31.0 °F 22.6 °F 55% 30.53 in 10.0 mi NE 9.2 mph - N/A   Overcast
8:55 PM 38.3 °F 33.2 °F 22.1 °F 52% 30.54 in 10.0 mi NE 6.9 mph - 0.01 in   Overcast
9:15 PM 38.3 °F 31.4 °F 21.7 °F 51% 30.54 in 10.0 mi NE 10.4 mph - N/A   Overcast
9:35 PM 38.3 °F 30.9 °F 21.2 °F 50% 30.54 in 10.0 mi NE 11.5 mph 19.6 mph N/A   Overcast
9:55 PM 38.3 °F 29.7 °F 20.3 °F 48% 30.55 in 10.0 mi NE 15.0 mph 20.7 mph N/A   Overcast
10:15 PM 38.3 °F 31.4 °F 20.7 °F 49% 30.54 in 10.0 mi NE 10.4 mph 17.3 mph N/A   Overcast
10:35 PM 38.3 °F 31.4 °F 20.8 °F 50% 30.54 in 10.0 mi NE 10.4 mph - N/A   Overcast
10:55 PM 37.9 °F 29.6 °F 21.2 °F 51% 30.53 in 10.0 mi NE 13.8 mph - N/A   Overcast
11:15 PM 37.8 °F 31.8 °F 21.7 °F 53% 30.54 in 10.0 mi NE 8.1 mph - N/A   Overcast
11:35 PM 37.8 °F 31.8 °F 21.9 °F 53% 30.55 in 10.0 mi NE 8.1 mph - N/A   Overcast
11:55 PM 37.8 °F 31.3 °F 21.9 °F 53% 30.55 in 10.0 mi NE 9.2 mph - N/A   Overcast